RH
13 14 14 15 21 34 36 31 30 26 27 32 36 39 89 67 100 100 100 100 100 100 100 100 100 100 100 100 100 100 100 100 100 100 100 100 100 100 100 100 100 73 79 81
9 9 9 10 11 14 19 24 22 24 24 20 21 28 29 31 32 64 78 100 100 100 100 100 100 100 100 100 100 100 100 100 100 100 100 100 100 100 100 100 98 72 87 89
8 9 9 10 9 10 10 11 13 13 13 13 10 15 17 24 29 35 50 71 95 100 97 100 100 100 100 100 100 100 100 100 98 100 100 98 100 100 96 86 91 90 75 83
6 6 6 7 8 9 10 10 10 10 10 10 11 12 14 16 19 25 34 37 46 60 78 96 100 100 100 100 100 100 100 100 100 100 100 100 100 100 88 87 93 82 90 89
4 4 4 5 5 5 6 8 10 9 10 11 10 10 8 8 13 17 19 25 50 82 85 84 88 98 88 71 80 100 100 100 100 100 100 100 100 99 84 85 100 92 75 78
4 5 5 4 4 4 4 5 6 8 10 10 9 8 10 10 9 10 15 19 22 30 55 80 78 72 86 80 95 97 100 89 99 77 100 97 92 100 100 96 89 85 77 83
4 4 5 5 4 4 4 4 6 6 6 6 8 9 9 6 6 9 12 15 18 21 24 30 46 74 94 82 80 85 85 84 75 75 100 96 86 92 100 96 96 97 90 78
4 4 4 4 4 4 6 7 6 6 5 6 6 5 4 5 7 10 11 13 16 18 20 21 24 26 30 32 46 69 90 99 100 97 84 79 75 90 98 84 65 86 100 83
4 4 3 4 4 5 5 6 6 7 6 5 5 4 4 5 6 8 12 11 14 15 16 18 19 21 23 23 29 44 56 73 84 78 75 67 78 91 91 91 52 95 79 67
4 4 4 4 4 5 5 5 5 6 6 6 6 5 5 5 5 7 10 12 13 14 15 16 16 17 17 18 20 28 34 39 46 58 64 56 62 57 46 62 67 51 54 50
4 4 4 5 5 4 4 4 5 5 6 7 6 5 5 7 8 10 12 16 18 16 15 14 14 14 18 18 19 19 20 20 23 31 31 26 36 37 34 38 46 45 37 32
3 4 4 5 6 5 4 5 5 5 6 5 6 7 9 10 10 12 13 14 15 11 11 12 12 12 15 14 15 17 16 19 19 18 20 21 20 19 21 21 20 21 19 18
3 4 4 5 6 6 6 6 6 7 7 8 7 7 8 9 9 8 8 9 8 9 9 8 10 10 11 11 13 14 15 17 16 16 16 16 16 15 14 14 14 14 13 12
3 4 5 5 7 8 8 8 8 8 7 8 7 7 8 6 6 7 8 8 8 8 7 8 8 10 10 12 13 14 14 12 14 13 14 15 15 14 12 12 10 11 11 11
4 4 4 4 4 5 6 6 7 8 8 7 6 5 6 7 6 6 6 7 8 9 9 9 10 10 11 10 10 12 12 12 11 13 14 13 13 10 9 10 10 10 10 11
4 4 4 5 5 5 6 7 7 6 6 7 7 6 7 6 7 7 6 6 6 8 9 10 11 11 11 11 12 13 13 13 12 14 12 10 10 10 10 11 12 12 12 11
4 4 4 4 5 5 4 4 5 6 6 6 6 7 8 9 9 9 8 8 8 8 9 10 11 11 11 12 12 13 14 13 12 11 10 11 12 12 12 12 12 12 14 17
4 4 4 4 5 5 5 5 5 5 6 7 9 9 9 8 7 8 7 8 8 9 11 11 11 12 12 14 15 14 12 11 12 13 14 14 14 14 13 13 14 16 17 17
5 5 5 5 6 5 6 8 8 9 8 8 7 7 8 8 8 8 8 9 11 12 14 14 13 12 14 13 13 14 14 15 16 15 15 15 16 15 14 17 19 21 23 28
6 6 6 7 7 9 9 8 9 9 9 9 10 10 9 10 11 12 14 15 14 13 12 12 13 14 14 16 17 18 17 17 17 17 18 18 19 20 22 25 28 31 31 31
8 9 9 9 9 9 10 10 10 11 12 12 13 13 12 12 14 14 14 14 15 14 16 17 18 19 18 19 22 22 22 20 20 22 23 25 27 28 31 32 32 34 36 36
9 10 11 12 13 15 15 15 15 15 14 13 15 16 13 14 15 16 16 16 17 18 18 19 21 21 22 25 26 26 26 27 29 31 32 34 35 34 34 33 34 36 38 43
11 12 14 15 16 14 11 13 13 12 14 13 15 15 13 16 17 18 18 21 20 23 21 24 24 26 28 29 31 31 31 33 33 33 32 32 31 31 31 30 29 30 34 40
9 11 10 14 12 16 14 13 14 14 15 15 16 18 17 18 18 20 21 23 24 24 26 28 30 32 34 34 36 37 35 34 34 34 34 33 30 28 27 26 26 26 27 31
11 12 12 13 14 13 15 15 15 19 20 19 20 19 20 19 21 24 26 29 32 34 37 39 38 39 38 36 36 36 37 36 35 35 33 34 37 40 43 44 43 42 43 44
8 9 9 10 11 12 12 13 18 22 23 22 24 26 29 30 34 37 42 42 43 42 39 38 38 40 40 40 40 40 46 55 58 58 54 50 44 38 33 29 27 25 26 27
10 10 10 10 12 14 15 18 21 23 24 29 32 38 42 40 43 43 39 40 40 41 44 48 50 51 57 66 69 71 69 60 53 48 37 29 27 25 21 20 18 17 16 17
Wind_Speed
97 99 103 104 107 116 127 138 149 143 141 154 158 156 147 140 142 141 132 133 130 127 126 122 124 122 119 115 115 118 119 114 114 111 113 113 113 107 111 111 107 110 109 104
90 91 93 96 100 106 115 124 129 125 132 136 137 145 146 147 146 144 137 135 134 133 132 125 125 126 125 120 122 123 121 119 117 115 118 118 115 113 113 114 110 105 110 107
80 83 85 89 93 97 106 109 115 120 127 129 121 121 127 137 141 147 145 139 139 133 134 131 130 128 128 121 120 119 121 120 123 122 118 120 117 113 117 112 111 107 108 108
73 75 76 80 85 88 98 101 108 111 114 111 108 113 116 121 128 135 141 142 142 140 137 131 132 131 130 125 123 122 119 119 120 119 118 120 118 116 114 113 113 115 111 115
66 68 71 76 80 81 86 91 95 98 98 102 105 109 105 100 108 119 123 132 140 145 144 140 137 135 135 134 128 124 125 125 124 122 119 121 123 118 114 118 115 117 119 117
62 64 66 69 72 75 77 84 86 88 91 96 98 98 96 96 98 102 109 115 123 132 139 143 143 141 139 137 132 130 130 130 128 128 127 127 128 113 122 121 119 120 122 119
59 60 63 66 66 67 70 74 79 84 86 89 91 91 94 88 82 83 88 99 110 115 122 130 138 142 144 140 137 135 134 133 134 131 130 133 125 122 122 122 122 121 124 123
53 56 58 61 62 61 64 71 74 76 80 83 84 85 80 76 72 75 79 84 93 103 109 114 121 125 129 130 131 134 132 132 135 136 135 133 131 124 125 127 121 120 125 124
48 51 54 54 56 61 64 68 71 72 75 75 76 76 73 71 71 70 76 79 82 90 98 103 109 112 113 115 118 122 126 131 136 134 133 131 124 125 126 122 112 120 117 112
43 47 49 48 48 56 62 66 67 69 69 67 67 65 65 64 62 65 71 75 78 82 89 93 96 99 101 104 106 110 115 118 121 123 123 120 116 117 110 110 103 99 100 95
38 42 46 46 50 54 57 54 59 63 59 62 59 54 51 47 45 45 55 65 77 83 86 86 89 87 90 94 94 97 100 102 102 106 108 105 104 102 98 96 95 91 86 83
35 37 40 43 44 46 46 48 51 52 55 51 45 45 45 46 50 57 62 72 78 81 81 79 80 79 80 81 80 86 85 89 89 88 90 88 86 82 83 83 79 77 74 71
33 34 35 37 38 37 36 37 40 41 42 44 48 49 49 55 61 62 65 72 77 74 73 72 72 71 72 71 70 73 72 76 74 77 72 73 75 71 69 68 66 67 62 59
30 32 33 33 35 36 36 37 40 43 44 44 47 49 55 55 49 51 57 61 60 64 64 65 64 64 65 64 64 65 66 64 64 63 63 65 64 61 60 57 57 55 52 50
28 31 34 35 36 35 37 38 36 37 42 44 45 44 42 43 44 46 50 51 53 54 55 55 55 56 55 57 56 55 55 56 54 55 54 54 54 53 50 50 49 47 44 42
26 27 28 29 31 33 33 35 37 38 37 37 40 39 37 35 35 38 43 46 44 45 46 46 47 49 48 46 45 47 46 46 44 45 48 49 46 46 44 43 41 40 37 34
25 27 29 30 32 33 31 31 30 31 32 33 32 30 29 31 34 35 37 36 37 40 40 39 41 41 39 39 39 40 38 39 40 44 43 40 39 38 36 35 33 29 26 27
22 23 23 22 24 27 28 29 28 28 28 28 29 31 31 31 32 32 34 35 33 31 34 35 36 34 33 32 35 35 36 35 34 33 34 33 32 30 30 28 26 25 27 27
21 23 23 24 25 25 24 24 27 27 30 29 28 27 26 26 26 26 27 26 28 29 30 31 31 29 30 31 30 30 29 30 29 28 28 27 27 27 24 23 22 23 23 23
17 17 19 19 20 22 24 23 22 22 22 23 24 24 26 25 24 24 23 26 26 28 28 26 26 26 25 26 26 25 25 25 24 23 23 23 23 21 21 22 22 23 23 24
22 21 21 21 20 18 18 20 22 21 22 23 24 24 25 25 24 25 25 25 25 24 22 23 22 23 23 22 22 22 21 21 20 19 20 21 21 21 22 23 24 25 26 27
24 24 23 23 23 21 21 21 22 24 25 25 25 24 25 24 23 22 22 21 20 20 21 22 22 22 21 21 20 19 20 20 20 20 20 21 22 23 24 26 26 27 28 29
23 24 23 24 24 24 24 24 25 24 23 22 23 24 22 22 22 21 21 21 23 21 21 23 22 21 21 20 21 22 21 20 19 20 21 22 23 24 26 28 29 30 31 31
20 21 22 22 24 23 21 23 23 22 21 21 20 20 20 21 22 22 24 23 22 23 23 22 22 21 21 20 20 18 18 18 19 20 20 22 24 26 27 29 30 32 33 34
18 19 19 20 20 23 23 23 23 23 21 21 22 21 22 23 23 24 23 23 23 23 22 21 21 20 19 18 17 16 16 18 19 21 23 24 26 27 28 29 30 32 33 35
15 17 19 20 20 22 23 23 24 24 24 23 23 25 24 24 24 24 25 24 24 24 22 21 19 18 17 16 17 17 17 17 18 19 19 21 22 24 26 28 29 31 33 35
15 17 17 19 21 23 24 24 26 25 25 26 26 27 28 27 27 27 25 25 22 21 19 18 17 16 15 14 14 14 15 16 16 17 19 21 23 25 27 28 29 30 32 35
Wind_Direction
250 249 248 246 245 244 246 248 248 249 247 247 246 246 248 249 251 251 250 251 250 254 254 258 261 260 258 260 260 262 266 267 269 269 271 274 277 277 277 278 277 280 281 282
252 250 249 247 245 244 244 245 249 249 250 249 246 247 247 245 247 249 251 252 250 252 253 255 258 261 261 259 262 264 266 267 268 269 270 272 274 275 275 278 279 283 284 286
251 249 247 246 245 243 244 244 246 247 247 248 247 245 245 245 244 246 249 250 250 251 253 254 256 256 259 260 261 262 264 266 267 269 269 271 273 273 275 278 280 280 284 283
248 246 245 243 241 240 243 242 243 245 247 251 253 249 246 244 243 243 246 249 251 251 251 251 254 256 258 258 259 261 263 264 265 266 268 271 272 273 275 278 279 281 282 283
248 246 243 241 241 239 238 240 243 246 245 246 247 249 249 245 242 244 244 245 248 250 250 251 252 253 255 257 258 259 260 262 263 264 266 268 271 273 277 276 279 279 283 285
245 244 243 241 239 239 240 238 239 241 242 245 247 248 249 248 244 241 242 244 245 246 248 249 251 252 253 255 256 256 257 260 261 265 265 266 268 273 273 276 278 280 281 282
245 242 241 241 240 238 236 238 237 239 240 242 244 246 247 249 248 246 244 243 244 246 246 247 248 249 251 254 255 256 258 259 262 264 264 266 270 270 272 274 275 278 279 282
242 240 238 238 238 237 236 236 237 238 239 240 242 245 248 251 250 247 245 244 242 243 245 247 248 251 252 255 255 256 257 258 260 262 264 267 269 271 271 272 276 278 277 280
237 237 235 232 232 231 233 233 235 235 238 241 243 245 247 246 247 245 246 245 243 244 246 247 248 249 251 253 254 256 257 259 261 263 265 268 270 271 273 273 275 276 279 280
235 235 235 232 230 230 231 233 235 236 238 239 242 245 244 245 245 243 242 244 245 245 245 247 248 249 251 252 254 255 257 260 262 264 266 267 268 270 273 275 277 275 278 279
230 231 231 228 227 230 232 233 234 236 237 238 239 243 245 245 243 233 231 232 239 240 242 244 246 248 250 251 254 256 257 259 261 263 265 267 267 270 274 274 275 275 275 274
222 224 227 228 229 232 233 232 235 235 235 239 240 240 237 235 228 227 222 225 231 237 239 242 245 247 249 251 252 255 257 258 260 264 265 268 269 269 270 271 272 271 270 270
215 217 221 225 228 230 230 231 233 234 233 231 228 228 227 229 229 228 228 228 232 238 242 244 246 248 250 252 253 255 256 257 259 261 264 264 266 269 267 268 267 264 265 267
211 208 208 209 213 218 218 220 221 222 223 226 227 229 230 231 232 233 234 235 236 240 242 244 245 246 248 250 251 253 255 256 257 260 260 261 263 265 265 263 265 268 268 268
205 205 206 209 212 214 216 219 223 224 226 229 232 237 239 236 232 227 231 232 234 236 239 242 242 244 247 248 248 252 253 254 255 256 259 261 261 263 265 266 266 266 266 264
199 203 204 204 205 208 208 209 214 217 218 219 222 224 224 226 227 229 231 233 233 234 236 236 238 240 243 246 248 250 251 253 256 256 256 256 259 262 263 265 265 263 262 259
191 195 199 198 199 204 206 209 212 215 218 223 225 225 227 228 226 227 226 229 230 230 232 233 235 237 239 242 246 248 251 249 247 249 255 259 259 261 260 258 254 252 251 244
187 191 193 192 193 196 198 202 206 208 213 217 216 215 216 216 217 219 223 223 224 223 224 227 230 234 237 239 240 241 244 250 252 254 253 254 254 253 251 246 244 241 237 233
169 172 173 175 182 184 184 190 197 200 203 204 205 204 205 206 207 209 213 211 210 213 217 223 226 229 230 234 238 242 243 243 244 245 246 245 245 243 236 233 234 234 233 231
161 167 166 166 172 175 182 184 186 188 195 193 195 197 197 193 195 194 196 200 205 211 216 221 225 226 229 230 230 233 235 236 236 234 233 233 230 228 229 231 232 233 235 236
149 149 150 152 155 160 166 173 174 178 184 185 187 188 192 185 190 192 196 198 204 209 211 213 217 218 216 215 217 222 223 221 216 216 217 219 223 225 227 231 234 237 240 242
142 142 144 145 144 149 158 162 170 174 181 181 181 182 189 180 183 186 188 192 194 195 198 196 199 200 200 203 203 202 203 203 204 209 215 220 226 231 235 238 238 238 241 243
142 144 149 151 153 161 164 167 174 175 175 179 174 178 177 174 175 174 177 180 181 181 184 185 185 186 188 189 190 195 198 203 211 219 226 232 237 239 241 243 245 245 247 247
147 148 152 155 157 160 162 163 163 159 160 162 162 162 167 167 168 169 172 171 171 175 174 176 177 181 184 188 194 201 210 219 227 234 239 243 247 250 253 254 255 255 254 254
147 148 149 149 156 157 155 160 159 155 157 159 160 163 164 161 160 163 164 163 165 167 169 173 180 185 192 200 208 215 222 229 237 244 248 252 254 256 258 259 260 260 260 260
145 150 156 158 157 157 157 157 155 157 162 163 162 159 158 158 159 159 161 165 171 175 180 183 188 192 199 207 217 225 232 239 246 252 259 263 265 267 267 267 266 266 264 263
146 152 154 156 156 158 158 158 158 162 161 160 160 161 162 162 164 169 171 174 176 178 181 186 194 202 209 217 228 237 245 253 260 268 272 276 278 277 276 275 273 270 267 265